Year,Month,Day,Hour,Minute,Value (Times are PST for temperature in C)
2015,04,09,00,00,7.40
2015,04,09,00,01,7.40
2015,04,09,00,02,7.30
2015,04,09,00,03,7.30
2015,04,09,00,04,7.30
2015,04,09,00,05,7.30
2015,04,09,00,06,7.30
2015,04,09,00,07,7.20
2015,04,09,00,08,7.20
2015,04,09,00,09,7.20
2015,04,09,00,10,7.20
2015,04,09,00,11,7.20
2015,04,09,00,12,7.20
2015,04,09,00,13,7.10
2015,04,09,00,14,7.10
2015,04,09,00,15,7.10
2015,04,09,00,16,7.00
2015,04,09,00,17,7.00
2015,04,09,00,18,6.90
2015,04,09,00,19,6.90
2015,04,09,00,20,6.90
2015,04,09,00,21,6.90
2015,04,09,00,22,6.90
2015,04,09,00,23,6.90
2015,04,09,00,24,6.90
2015,04,09,00,25,6.90
2015,04,09,00,26,6.90
2015,04,09,00,27,6.90
2015,04,09,00,28,6.80
2015,04,09,00,29,6.80
2015,04,09,00,30,6.80
2015,04,09,00,31,6.80
2015,04,09,00,32,6.80
2015,04,09,00,33,6.80
2015,04,09,00,34,6.80
2015,04,09,00,35,6.80
2015,04,09,00,36,6.80
2015,04,09,00,37,6.80
2015,04,09,00,38,6.80
2015,04,09,00,39,6.70
2015,04,09,00,40,6.70
2015,04,09,00,41,6.70
2015,04,09,00,42,6.70
2015,04,09,00,43,6.70
2015,04,09,00,44,6.70
2015,04,09,00,45,6.60
2015,04,09,00,46,6.60
2015,04,09,00,47,6.60
2015,04,09,00,48,6.60
2015,04,09,00,49,6.50
2015,04,09,00,50,6.50
2015,04,09,00,51,6.40
2015,04,09,00,52,6.40
2015,04,09,00,53,6.30
2015,04,09,00,54,6.30
2015,04,09,00,55,6.30
2015,04,09,00,56,6.30
2015,04,09,00,57,6.30
2015,04,09,00,58,6.20
2015,04,09,00,59,6.20
2015,04,09,01,00,6.20
2015,04,09,01,01,6.20
2015,04,09,01,02,6.10
2015,04,09,01,03,6.10
2015,04,09,01,04,6.10
2015,04,09,01,05,6.00
2015,04,09,01,06,6.00
2015,04,09,01,07,6.00
2015,04,09,01,08,5.90
2015,04,09,01,09,5.90
2015,04,09,01,10,5.90
2015,04,09,01,11,5.90
2015,04,09,01,12,5.90
2015,04,09,01,13,5.90
2015,04,09,01,14,5.80
2015,04,09,01,15,5.80
2015,04,09,01,16,5.80
2015,04,09,01,17,5.80
2015,04,09,01,18,5.80
2015,04,09,01,19,5.80
2015,04,09,01,20,5.80
2015,04,09,01,21,5.80
2015,04,09,01,22,5.80
2015,04,09,01,23,5.80
2015,04,09,01,24,5.80
2015,04,09,01,25,5.80
2015,04,09,01,26,5.80
2015,04,09,01,27,5.90
2015,04,09,01,28,5.90
2015,04,09,01,29,5.90
2015,04,09,01,30,5.90
2015,04,09,01,31,6.00
2015,04,09,01,32,6.00
2015,04,09,01,33,5.90
2015,04,09,01,34,5.90
2015,04,09,01,35,5.90
2015,04,09,01,36,5.90
2015,04,09,01,37,5.90
2015,04,09,01,38,5.90
2015,04,09,01,39,5.90
2015,04,09,01,40,5.90
2015,04,09,01,41,5.90
2015,04,09,01,42,5.90
2015,04,09,01,43,5.90
2015,04,09,01,44,5.90
2015,04,09,01,45,5.90
2015,04,09,01,46,6.00
2015,04,09,01,47,6.00
2015,04,09,01,48,6.00
2015,04,09,01,49,6.00
2015,04,09,01,50,6.00
2015,04,09,01,51,6.00
2015,04,09,01,52,6.00
2015,04,09,01,53,6.00
2015,04,09,01,54,6.00
2015,04,09,01,55,5.90
2015,04,09,01,56,5.90
2015,04,09,01,57,5.90
2015,04,09,01,58,5.90
2015,04,09,01,59,5.80
2015,04,09,02,00,5.80
2015,04,09,02,01,5.80
2015,04,09,02,02,5.80
2015,04,09,02,03,5.80
2015,04,09,02,04,5.80
2015,04,09,02,05,5.80
2015,04,09,02,06,5.80
2015,04,09,02,07,5.80
2015,04,09,02,08,5.80
2015,04,09,02,09,5.70
2015,04,09,02,10,5.70
2015,04,09,02,11,5.70
2015,04,09,02,12,5.70
2015,04,09,02,13,5.70
2015,04,09,02,14,5.70
2015,04,09,02,15,5.70
2015,04,09,02,16,5.70
2015,04,09,02,17,5.70
2015,04,09,02,18,5.70
2015,04,09,02,19,5.70
2015,04,09,02,20,5.60
2015,04,09,02,21,5.60
2015,04,09,02,22,5.50
2015,04,09,02,23,5.50
2015,04,09,02,24,5.40
2015,04,09,02,25,5.40
2015,04,09,02,26,5.30
2015,04,09,02,27,5.30
2015,04,09,02,28,5.20
2015,04,09,02,29,5.20
2015,04,09,02,30,5.10
2015,04,09,02,31,5.10
2015,04,09,02,32,5.00
2015,04,09,02,33,4.90
2015,04,09,02,34,4.90
2015,04,09,02,35,4.80
2015,04,09,02,36,4.80
2015,04,09,02,37,4.80
2015,04,09,02,38,4.80
2015,04,09,02,39,4.70
2015,04,09,02,40,4.70
2015,04,09,02,41,4.60
2015,04,09,02,42,4.60
2015,04,09,02,43,4.60
2015,04,09,02,44,4.50
2015,04,09,02,45,4.50
2015,04,09,02,46,4.40
2015,04,09,02,47,4.40
2015,04,09,02,48,4.40
2015,04,09,02,49,4.30
2015,04,09,02,50,4.30
2015,04,09,02,51,4.30
2015,04,09,02,52,4.20
2015,04,09,02,53,4.20
2015,04,09,02,54,4.20
2015,04,09,02,55,4.10
2015,04,09,02,56,4.10
2015,04,09,02,57,4.10
2015,04,09,02,58,4.10
2015,04,09,02,59,4.00
2015,04,09,03,00,4.00
2015,04,09,03,01,4.00
2015,04,09,03,02,3.90
2015,04,09,03,03,3.90
2015,04,09,03,04,3.90
2015,04,09,03,05,3.90
2015,04,09,03,06,3.90
2015,04,09,03,07,3.90
2015,04,09,03,08,3.90
2015,04,09,03,09,3.90
2015,04,09,03,10,3.80
2015,04,09,03,11,3.80
2015,04,09,03,12,3.80
2015,04,09,03,13,3.80
2015,04,09,03,14,3.80
2015,04,09,03,15,3.80
2015,04,09,03,16,3.80
2015,04,09,03,17,3.80
2015,04,09,03,18,3.80
2015,04,09,03,19,3.80
2015,04,09,03,20,3.80
2015,04,09,03,21,3.80
2015,04,09,03,22,3.80
2015,04,09,03,23,3.80
2015,04,09,03,24,3.80
2015,04,09,03,25,3.80
2015,04,09,03,26,3.80
2015,04,09,03,27,3.80
2015,04,09,03,28,3.80
2015,04,09,03,29,3.80
2015,04,09,03,30,3.70
2015,04,09,03,31,3.70
2015,04,09,03,32,3.70
2015,04,09,03,33,3.70
2015,04,09,03,34,3.70
2015,04,09,03,35,3.70
2015,04,09,03,36,3.70
2015,04,09,03,37,3.70
2015,04,09,03,38,3.70
2015,04,09,03,39,3.70
2015,04,09,03,40,3.70
2015,04,09,03,41,3.60
2015,04,09,03,42,3.60
2015,04,09,03,43,3.60
2015,04,09,03,44,3.60
2015,04,09,03,45,3.60
2015,04,09,03,46,3.60
2015,04,09,03,47,3.60
2015,04,09,03,48,3.60
2015,04,09,03,49,3.60
2015,04,09,03,50,3.50
2015,04,09,03,51,3.50
2015,04,09,03,52,3.40
2015,04,09,03,53,3.40
2015,04,09,03,54,3.40
2015,04,09,03,55,3.40
2015,04,09,03,56,3.40
2015,04,09,03,57,3.30
2015,04,09,03,58,3.30
2015,04,09,03,59,3.30
2015,04,09,04,00,3.30
2015,04,09,04,01,3.30
2015,04,09,04,02,3.30
2015,04,09,04,03,3.20
2015,04,09,04,04,3.20
2015,04,09,04,05,3.20
2015,04,09,04,06,3.20
2015,04,09,04,07,3.20
2015,04,09,04,08,3.20
2015,04,09,04,09,3.20
2015,04,09,04,10,3.20
2015,04,09,04,11,3.10
2015,04,09,04,12,3.10
2015,04,09,04,13,3.10
2015,04,09,04,14,3.10
2015,04,09,04,15,3.10
2015,04,09,04,16,3.10
2015,04,09,04,17,3.10
2015,04,09,04,18,3.10
2015,04,09,04,19,3.10
2015,04,09,04,20,3.00
2015,04,09,04,21,3.00
2015,04,09,04,22,3.00
2015,04,09,04,23,3.00
2015,04,09,04,24,3.00
2015,04,09,04,25,3.00
2015,04,09,04,26,2.90
2015,04,09,04,27,2.90
2015,04,09,04,28,2.90
2015,04,09,04,29,2.90
2015,04,09,04,30,2.90
2015,04,09,04,31,2.90
2015,04,09,04,32,2.90
2015,04,09,04,33,2.90
2015,04,09,04,34,2.90
2015,04,09,04,35,2.90
2015,04,09,04,36,2.90
2015,04,09,04,37,2.90
2015,04,09,04,38,2.90
2015,04,09,04,39,2.90
2015,04,09,04,40,2.90
2015,04,09,04,41,2.90
2015,04,09,04,42,2.90
2015,04,09,04,43,2.90
2015,04,09,04,44,2.90
2015,04,09,04,45,2.90
2015,04,09,04,46,2.90
2015,04,09,04,47,2.80
2015,04,09,04,48,2.80
2015,04,09,04,49,2.80
2015,04,09,04,50,2.80
2015,04,09,04,51,2.80
2015,04,09,04,52,2.80
2015,04,09,04,53,2.80
2015,04,09,04,54,2.70
2015,04,09,04,55,2.70
2015,04,09,04,56,2.70
2015,04,09,04,57,2.70
2015,04,09,04,58,2.70
2015,04,09,04,59,2.70
2015,04,09,05,00,2.60
2015,04,09,05,01,2.60
2015,04,09,05,02,2.60
2015,04,09,05,03,2.60
2015,04,09,05,04,2.60
2015,04,09,05,05,2.60
2015,04,09,05,06,2.50
2015,04,09,05,07,2.50
2015,04,09,05,08,2.40
2015,04,09,05,09,2.40
2015,04,09,05,10,2.40
2015,04,09,05,11,2.40
2015,04,09,05,12,2.40
2015,04,09,05,13,2.40
2015,04,09,05,14,2.40
2015,04,09,05,15,2.40
2015,04,09,05,16,2.40
2015,04,09,05,17,2.40
2015,04,09,05,18,2.40
2015,04,09,05,19,2.30
2015,04,09,05,20,2.30
2015,04,09,05,21,2.30
2015,04,09,05,22,2.30
2015,04,09,05,23,2.30
2015,04,09,05,24,2.30
2015,04,09,05,25,2.30
2015,04,09,05,26,2.30
2015,04,09,05,27,2.30
2015,04,09,05,28,2.30
2015,04,09,05,29,2.30
2015,04,09,05,30,2.30
2015,04,09,05,31,2.20
2015,04,09,05,32,2.20
2015,04,09,05,33,2.20
2015,04,09,05,34,2.20
2015,04,09,05,35,2.20
2015,04,09,05,36,2.20
2015,04,09,05,37,2.20
2015,04,09,05,38,2.20
2015,04,09,05,39,2.20
2015,04,09,05,40,2.10
2015,04,09,05,41,2.10
2015,04,09,05,42,2.10
2015,04,09,05,43,2.10
2015,04,09,05,44,2.10
2015,04,09,05,45,2.10
2015,04,09,05,46,2.10
2015,04,09,05,47,2.10
2015,04,09,05,48,2.00
2015,04,09,05,49,2.00
2015,04,09,05,50,2.00
2015,04,09,05,51,1.90
2015,04,09,05,52,1.90
2015,04,09,05,53,1.90
2015,04,09,05,54,1.90
2015,04,09,05,55,1.90
2015,04,09,05,56,1.90
2015,04,09,05,57,1.90
2015,04,09,05,58,1.90
2015,04,09,05,59,1.90
2015,04,09,06,00,1.90
2015,04,09,06,01,1.90
2015,04,09,06,02,1.90
2015,04,09,06,03,1.80
2015,04,09,06,04,1.80
2015,04,09,06,05,1.80
2015,04,09,06,06,1.80
2015,04,09,06,07,1.80
2015,04,09,06,08,1.80
2015,04,09,06,09,1.80
2015,04,09,06,10,1.80
2015,04,09,06,11,1.80
2015,04,09,06,12,1.70
2015,04,09,06,13,1.70
2015,04,09,06,14,1.70
2015,04,09,06,15,1.70
2015,04,09,06,16,1.70
2015,04,09,06,17,1.70
2015,04,09,06,18,1.70
2015,04,09,06,19,1.70
2015,04,09,06,20,1.70
2015,04,09,06,21,1.70
2015,04,09,06,22,1.70
2015,04,09,06,23,1.70
2015,04,09,06,24,1.60
2015,04,09,06,25,1.60
2015,04,09,06,26,1.60
2015,04,09,06,27,1.60
2015,04,09,06,28,1.60
2015,04,09,06,29,1.60
2015,04,09,06,30,1.60
2015,04,09,06,31,1.60
2015,04,09,06,32,1.60
2015,04,09,06,33,1.60
2015,04,09,06,34,1.60
2015,04,09,06,35,1.60
2015,04,09,06,36,1.60
2015,04,09,06,37,1.60
2015,04,09,06,38,1.60
2015,04,09,06,39,1.60
2015,04,09,06,40,1.60
2015,04,09,06,41,1.60
2015,04,09,06,42,1.60
2015,04,09,06,43,1.60
2015,04,09,06,44,1.50
2015,04,09,06,45,1.50
2015,04,09,06,46,1.50
2015,04,09,06,47,1.50
2015,04,09,06,48,1.50
2015,04,09,06,49,1.50
2015,04,09,06,50,1.50
2015,04,09,06,51,1.50
2015,04,09,06,52,1.50
2015,04,09,06,53,1.50
2015,04,09,06,54,1.50
2015,04,09,06,55,1.50
2015,04,09,06,56,1.50
2015,04,09,06,57,1.50
2015,04,09,06,58,1.60
2015,04,09,06,59,1.60
2015,04,09,07,00,1.60
2015,04,09,07,01,1.60
2015,04,09,07,02,1.60
2015,04,09,07,03,1.60
2015,04,09,07,04,1.60
2015,04,09,07,05,1.60
2015,04,09,07,06,1.60
2015,04,09,07,07,1.60
2015,04,09,07,08,1.60
2015,04,09,07,09,1.60
2015,04,09,07,10,1.60
2015,04,09,07,11,1.60
2015,04,09,07,12,1.60
2015,04,09,07,13,1.60
2015,04,09,07,14,1.60
2015,04,09,07,15,1.60
2015,04,09,07,16,1.60
2015,04,09,07,17,1.60
2015,04,09,07,18,1.60
2015,04,09,07,19,1.50
2015,04,09,07,20,1.50
2015,04,09,07,21,1.50
2015,04,09,07,22,1.60
2015,04,09,07,23,1.50
2015,04,09,07,24,1.50
2015,04,09,07,25,1.60
2015,04,09,07,26,1.60
2015,04,09,07,27,1.50
2015,04,09,07,28,1.60
2015,04,09,07,29,1.60
2015,04,09,07,30,1.60
2015,04,09,07,31,1.60
2015,04,09,07,32,1.60
2015,04,09,07,33,1.60
2015,04,09,07,34,1.60
2015,04,09,07,35,1.60
2015,04,09,07,36,1.60
2015,04,09,07,37,1.60
2015,04,09,07,38,1.70
2015,04,09,07,39,1.70
2015,04,09,07,40,1.70
2015,04,09,07,41,1.70
2015,04,09,07,42,1.80
2015,04,09,07,43,1.80
2015,04,09,07,44,1.90
2015,04,09,07,45,1.90
2015,04,09,07,46,2.00
2015,04,09,07,47,2.10
2015,04,09,07,48,2.10
2015,04,09,07,49,2.20
2015,04,09,07,50,2.30
2015,04,09,07,51,2.40
2015,04,09,07,52,2.40
2015,04,09,07,53,2.60
2015,04,09,07,54,2.60
2015,04,09,07,55,2.70
2015,04,09,07,56,2.80
2015,04,09,07,57,2.90
2015,04,09,07,58,2.90
2015,04,09,07,59,3.10
2015,04,09,08,00,3.10
2015,04,09,08,01,3.20
2015,04,09,08,02,3.30
2015,04,09,08,03,3.30
2015,04,09,08,04,3.40
2015,04,09,08,05,3.40
2015,04,09,08,06,3.50
2015,04,09,08,07,3.60
2015,04,09,08,08,3.60
2015,04,09,08,09,3.70
2015,04,09,08,10,3.70
2015,04,09,08,11,3.80
2015,04,09,08,12,3.80
2015,04,09,08,13,3.80
2015,04,09,08,14,3.90
2015,04,09,08,15,4.00
2015,04,09,08,16,4.00
2015,04,09,08,17,4.00
2015,04,09,08,18,4.10
2015,04,09,08,19,4.10
2015,04,09,08,20,4.20
2015,04,09,08,21,4.20
2015,04,09,08,22,4.30
2015,04,09,08,23,4.40
2015,04,09,08,24,4.40
2015,04,09,08,25,4.50
2015,04,09,08,26,4.50
2015,04,09,08,27,4.60
2015,04,09,08,28,4.60
2015,04,09,08,29,4.60
2015,04,09,08,30,4.60
2015,04,09,08,31,4.50
2015,04,09,08,32,4.50
2015,04,09,08,33,4.50
2015,04,09,08,34,4.40
2015,04,09,08,35,4.40
2015,04,09,08,36,4.40
2015,04,09,08,37,4.40
2015,04,09,08,38,4.30
2015,04,09,08,39,4.30
2015,04,09,08,40,4.30
2015,04,09,08,41,4.30
2015,04,09,08,42,4.40
2015,04,09,08,43,4.40
2015,04,09,08,44,4.40
2015,04,09,08,45,4.40
2015,04,09,08,46,4.50
2015,04,09,08,47,4.60
2015,04,09,08,48,4.60
2015,04,09,08,49,4.70
2015,04,09,08,50,4.70
2015,04,09,08,51,4.70
2015,04,09,08,52,4.80
2015,04,09,08,53,4.80
2015,04,09,08,54,4.90
2015,04,09,08,55,4.90
2015,04,09,08,56,5.00
2015,04,09,08,57,5.00
2015,04,09,08,58,5.10
2015,04,09,08,59,5.10
2015,04,09,09,00,5.20
2015,04,09,09,01,5.20
2015,04,09,09,02,5.20
2015,04,09,09,03,5.20
2015,04,09,09,04,5.20
2015,04,09,09,05,5.20
2015,04,09,09,06,5.20
2015,04,09,09,07,5.20
2015,04,09,09,08,5.20
2015,04,09,09,09,5.20
2015,04,09,09,10,5.20
2015,04,09,09,11,5.20
2015,04,09,09,12,5.20
2015,04,09,09,13,5.20
2015,04,09,09,14,5.10
2015,04,09,09,15,5.10
2015,04,09,09,16,5.10
2015,04,09,09,17,5.10
2015,04,09,09,18,5.10
2015,04,09,09,19,5.10
2015,04,09,09,20,5.10
2015,04,09,09,21,5.20
2015,04,09,09,22,5.20
2015,04,09,09,23,5.30
2015,04,09,09,24,5.30
2015,04,09,09,25,5.30
2015,04,09,09,26,5.30
2015,04,09,09,27,5.30
2015,04,09,09,28,5.30
2015,04,09,09,29,5.40
2015,04,09,09,30,5.40
2015,04,09,09,31,5.40
2015,04,09,09,32,5.40
2015,04,09,09,33,5.40
2015,04,09,09,34,5.40
2015,04,09,09,35,5.40
2015,04,09,09,36,5.50
2015,04,09,09,37,5.50
2015,04,09,09,38,5.60
2015,04,09,09,39,5.60
2015,04,09,09,40,5.60
2015,04,09,09,41,5.70
2015,04,09,09,42,5.70
2015,04,09,09,43,5.80
2015,04,09,09,44,5.80
2015,04,09,09,45,5.90
2015,04,09,09,46,5.90
2015,04,09,09,47,6.00
2015,04,09,09,48,6.00
2015,04,09,09,49,6.10
2015,04,09,09,50,6.10
2015,04,09,09,51,6.20
2015,04,09,09,52,6.20
2015,04,09,09,53,6.20
2015,04,09,09,54,6.20
2015,04,09,09,55,6.30
2015,04,09,09,56,6.30
2015,04,09,09,57,6.40
2015,04,09,09,58,6.50
2015,04,09,09,59,6.60
2015,04,09,10,00,6.70
2015,04,09,10,01,6.70
2015,04,09,10,02,6.80
2015,04,09,10,03,6.80
2015,04,09,10,04,6.90
2015,04,09,10,05,6.90
2015,04,09,10,06,7.00
2015,04,09,10,07,7.10
2015,04,09,10,08,7.10
2015,04,09,10,09,7.20
2015,04,09,10,10,7.30
2015,04,09,10,11,7.40
2015,04,09,10,12,7.40
2015,04,09,10,13,7.50
2015,04,09,10,14,7.50
2015,04,09,10,15,7.60
2015,04,09,10,16,7.60
2015,04,09,10,17,7.60
2015,04,09,10,18,7.60
2015,04,09,10,19,7.60
2015,04,09,10,20,7.60
2015,04,09,10,21,7.70
2015,04,09,10,22,7.70
2015,04,09,10,23,7.70
2015,04,09,10,24,7.80
2015,04,09,10,25,7.80
2015,04,09,10,26,7.90
2015,04,09,10,27,7.90
2015,04,09,10,28,7.90
2015,04,09,10,29,8.00
2015,04,09,10,30,8.10
2015,04,09,10,31,8.10
2015,04,09,10,32,8.20
2015,04,09,10,33,8.20
2015,04,09,10,34,8.20
2015,04,09,10,35,8.30
2015,04,09,10,36,8.40
2015,04,09,10,37,8.60
2015,04,09,10,38,8.70
2015,04,09,10,39,8.80
2015,04,09,10,40,8.80
2015,04,09,10,41,8.80
2015,04,09,10,42,8.90
2015,04,09,10,43,8.90
2015,04,09,10,44,9.00
2015,04,09,10,45,9.20
2015,04,09,10,46,9.30
2015,04,09,10,47,9.30
2015,04,09,10,48,9.40
2015,04,09,10,49,9.40
2015,04,09,10,50,9.50
2015,04,09,10,51,9.50
2015,04,09,10,52,9.60
2015,04,09,10,53,9.60
2015,04,09,10,54,9.60
2015,04,09,10,55,9.60
2015,04,09,10,56,9.70
2015,04,09,10,57,9.70
2015,04,09,10,58,9.70
2015,04,09,10,59,9.80
2015,04,09,11,00,9.80
2015,04,09,11,01,9.90
2015,04,09,11,02,9.90
2015,04,09,11,03,9.90
2015,04,09,11,04,9.90
2015,04,09,11,05,10.00
2015,04,09,11,06,10.10
2015,04,09,11,07,10.10
2015,04,09,11,08,10.20
2015,04,09,11,09,10.20
2015,04,09,11,10,10.30
2015,04,09,11,11,10.30
2015,04,09,11,12,10.30
2015,04,09,11,13,10.40
2015,04,09,11,14,10.40
2015,04,09,11,15,10.40
2015,04,09,11,16,10.40
2015,04,09,11,17,10.40
2015,04,09,11,18,10.40
2015,04,09,11,19,10.40
2015,04,09,11,20,10.40
2015,04,09,11,21,10.50
2015,04,09,11,22,10.40
2015,04,09,11,23,10.50
2015,04,09,11,24,10.50
2015,04,09,11,25,10.60
2015,04,09,11,26,10.70
2015,04,09,11,27,10.70
2015,04,09,11,28,10.70
2015,04,09,11,29,10.70
2015,04,09,11,30,10.80
2015,04,09,11,31,10.80
2015,04,09,11,32,10.90
2015,04,09,11,33,11.00
2015,04,09,11,34,11.10
2015,04,09,11,35,11.20
2015,04,09,11,36,11.20
2015,04,09,11,37,11.30
2015,04,09,11,38,11.40
2015,04,09,11,39,11.50
2015,04,09,11,40,11.60
2015,04,09,11,41,11.60
2015,04,09,11,42,11.60
2015,04,09,11,43,11.60
2015,04,09,11,44,11.60
2015,04,09,11,45,11.60
2015,04,09,11,46,11.60
2015,04,09,11,47,11.60
2015,04,09,11,48,11.70
2015,04,09,11,49,11.80
2015,04,09,11,50,12.00
2015,04,09,11,51,12.10
2015,04,09,11,52,12.30
2015,04,09,11,53,12.40
2015,04,09,11,54,12.60
2015,04,09,11,55,12.70
2015,04,09,11,56,12.80
2015,04,09,11,57,12.80
2015,04,09,11,58,12.90
2015,04,09,11,59,12.90
2015,04,09,12,00,13.00
2015,04,09,12,01,13.10
2015,04,09,12,02,13.20
2015,04,09,12,03,13.20
2015,04,09,12,04,13.20
2015,04,09,12,05,13.20
2015,04,09,12,06,13.20
2015,04,09,12,07,13.20
2015,04,09,12,08,13.30
2015,04,09,12,09,13.30
2015,04,09,12,10,13.30
2015,04,09,12,11,13.40
2015,04,09,12,12,13.40
2015,04,09,12,13,13.60
2015,04,09,12,14,13.70
2015,04,09,12,15,13.70
2015,04,09,12,16,13.70
2015,04,09,12,17,13.70
2015,04,09,12,18,13.70
2015,04,09,12,19,13.70
2015,04,09,12,20,13.80
2015,04,09,12,21,13.90
2015,04,09,12,22,14.00
2015,04,09,12,23,14.10
2015,04,09,12,24,14.20
2015,04,09,12,25,14.30
2015,04,09,12,26,14.30
2015,04,09,12,27,14.30
2015,04,09,12,28,14.40
2015,04,09,12,29,14.40
2015,04,09,12,30,14.50
2015,04,09,12,31,14.60
2015,04,09,12,32,14.60
2015,04,09,12,33,14.70
2015,04,09,12,34,14.70
2015,04,09,12,35,14.80
2015,04,09,12,36,14.70
2015,04,09,12,37,14.70
2015,04,09,12,38,14.70
2015,04,09,12,39,14.60
2015,04,09,12,40,14.70
2015,04,09,12,41,14.70
2015,04,09,12,42,14.80
2015,04,09,12,43,14.90
2015,04,09,12,44,15.00
2015,04,09,12,45,15.10
2015,04,09,12,46,15.20
2015,04,09,12,47,15.30
2015,04,09,12,48,15.30
2015,04,09,12,49,15.40
2015,04,09,12,50,15.50
2015,04,09,12,51,15.60
2015,04,09,12,52,15.70
2015,04,09,12,53,15.80
2015,04,09,12,54,15.90
2015,04,09,12,55,15.90
2015,04,09,12,56,16.10
2015,04,09,12,57,16.10
2015,04,09,12,58,16.10
2015,04,09,12,59,16.10
2015,04,09,13,00,16.00
2015,04,09,13,01,16.10
2015,04,09,13,02,16.10
2015,04,09,13,03,16.10
2015,04,09,13,04,16.20
2015,04,09,13,05,16.20
2015,04,09,13,06,16.20
2015,04,09,13,07,16.10
2015,04,09,13,08,15.90
2015,04,09,13,09,15.80
2015,04,09,13,10,15.60
2015,04,09,13,11,15.50
2015,04,09,13,12,15.40
2015,04,09,13,13,15.40
2015,04,09,13,14,15.40
2015,04,09,13,15,15.60
2015,04,09,13,16,15.70
2015,04,09,13,17,15.70
2015,04,09,13,18,15.70
2015,04,09,13,19,15.80
2015,04,09,13,20,15.90
2015,04,09,13,21,16.10
2015,04,09,13,22,16.20
2015,04,09,13,23,16.10
2015,04,09,13,24,16.10
2015,04,09,13,25,16.10
2015,04,09,13,26,16.20
2015,04,09,13,27,16.20
2015,04,09,13,28,16.30
2015,04,09,13,29,16.40
2015,04,09,13,30,16.50
2015,04,09,13,31,16.70
2015,04,09,13,32,16.70
2015,04,09,13,33,16.80
2015,04,09,13,34,16.90
2015,04,09,13,35,16.90
2015,04,09,13,36,16.90
2015,04,09,13,37,17.00
2015,04,09,13,38,17.00
2015,04,09,13,39,16.90
2015,04,09,13,40,16.90
2015,04,09,13,41,16.90
2015,04,09,13,42,16.90
2015,04,09,13,43,16.90
2015,04,09,13,44,17.00
2015,04,09,13,45,17.00
2015,04,09,13,46,17.10
2015,04,09,13,47,17.10
2015,04,09,13,48,17.20
2015,04,09,13,49,17.20
2015,04,09,13,50,17.30
2015,04,09,13,51,17.30
2015,04,09,13,52,17.40
2015,04,09,13,53,17.40
2015,04,09,13,54,17.50
2015,04,09,13,55,17.60
2015,04,09,13,56,17.60
2015,04,09,13,57,17.70
2015,04,09,13,58,17.70
2015,04,09,13,59,17.80
2015,04,09,14,00,17.80
2015,04,09,14,01,17.80
2015,04,09,14,02,17.70
2015,04,09,14,03,17.70
2015,04,09,14,04,17.70
2015,04,09,14,05,17.80
2015,04,09,14,06,17.80
2015,04,09,14,07,18.00
2015,04,09,14,08,18.20
2015,04,09,14,09,18.30
2015,04,09,14,10,18.40
2015,04,09,14,11,18.60
2015,04,09,14,12,18.60
2015,04,09,14,13,18.50
2015,04,09,14,14,18.40
2015,04,09,14,15,18.30
2015,04,09,14,16,18.30
2015,04,09,14,17,18.40
2015,04,09,14,18,18.40
2015,04,09,14,19,18.50
2015,04,09,14,20,18.50
2015,04,09,14,21,18.60
2015,04,09,14,22,18.60
2015,04,09,14,23,18.70
2015,04,09,14,24,18.70
2015,04,09,14,25,18.70
2015,04,09,14,26,18.80
2015,04,09,14,27,18.80
2015,04,09,14,28,18.80
2015,04,09,14,29,18.90
2015,04,09,14,30,19.00
2015,04,09,14,31,19.10
2015,04,09,14,32,19.10
2015,04,09,14,33,19.10
2015,04,09,14,34,19.10
2015,04,09,14,35,19.20
2015,04,09,14,36,19.10
2015,04,09,14,37,19.10
2015,04,09,14,38,19.10
2015,04,09,14,39,19.10
2015,04,09,14,40,19.20
2015,04,09,14,41,19.20
2015,04,09,14,42,19.20
2015,04,09,14,43,19.20
2015,04,09,14,44,19.20
2015,04,09,14,45,19.20
2015,04,09,14,46,19.30
2015,04,09,14,47,19.30
2015,04,09,14,48,19.20
2015,04,09,14,49,19.20
2015,04,09,14,50,19.20
2015,04,09,14,51,19.30
2015,04,09,14,52,19.30
2015,04,09,14,53,19.40
2015,04,09,14,54,19.40
2015,04,09,14,55,19.40
2015,04,09,14,56,19.40
2015,04,09,14,57,19.40
2015,04,09,14,58,19.30
2015,04,09,14,59,19.30
2015,04,09,15,00,19.30
2015,04,09,15,01,19.30
2015,04,09,15,02,19.30
2015,04,09,15,03,19.30
2015,04,09,15,04,19.30
2015,04,09,15,05,19.30
2015,04,09,15,06,19.40
2015,04,09,15,07,19.40
2015,04,09,15,08,19.50
2015,04,09,15,09,19.50
2015,04,09,15,10,19.40
2015,04,09,15,11,19.40
2015,04,09,15,12,19.50
2015,04,09,15,13,19.50
2015,04,09,15,14,19.60
2015,04,09,15,15,19.60
2015,04,09,15,16,19.60
2015,04,09,15,17,19.60
2015,04,09,15,18,19.70
2015,04,09,15,19,19.70
2015,04,09,15,20,19.80
2015,04,09,15,21,19.80
2015,04,09,15,22,19.80
2015,04,09,15,23,19.80
2015,04,09,15,24,19.80
2015,04,09,15,25,19.90
2015,04,09,15,26,19.80
2015,04,09,15,27,19.70
2015,04,09,15,28,19.70
2015,04,09,15,29,19.70
2015,04,09,15,30,19.70
2015,04,09,15,31,19.70
2015,04,09,15,32,19.80
2015,04,09,15,33,19.80
2015,04,09,15,34,19.80
2015,04,09,15,35,19.80
2015,04,09,15,36,19.80
2015,04,09,15,37,19.70
2015,04,09,15,38,19.70
2015,04,09,15,39,19.70
2015,04,09,15,40,19.70
2015,04,09,15,41,19.70
2015,04,09,15,42,19.60
2015,04,09,15,43,19.50
2015,04,09,15,44,19.40
2015,04,09,15,45,19.30
2015,04,09,15,46,19.30
2015,04,09,15,47,19.30
2015,04,09,15,48,19.40
2015,04,09,15,49,19.40
2015,04,09,15,50,19.40
2015,04,09,15,51,19.40
2015,04,09,15,52,19.40
2015,04,09,15,53,19.40
2015,04,09,15,54,19.40
2015,04,09,15,55,19.30
2015,04,09,15,56,19.20
2015,04,09,15,57,19.10
2015,04,09,15,58,19.10
2015,04,09,15,59,18.90
2015,04,09,16,00,18.90
2015,04,09,16,01,18.80
2015,04,09,16,02,18.80
2015,04,09,16,03,18.80
2015,04,09,16,04,18.80
2015,04,09,16,05,18.70
2015,04,09,16,06,18.70
2015,04,09,16,07,18.70
2015,04,09,16,08,18.70
2015,04,09,16,09,18.70
2015,04,09,16,10,18.80
2015,04,09,16,11,18.80
2015,04,09,16,12,18.70
2015,04,09,16,13,18.70
2015,04,09,16,14,18.70
2015,04,09,16,15,18.60
2015,04,09,16,16,18.60
2015,04,09,16,17,18.60
2015,04,09,16,18,18.60
2015,04,09,16,19,18.70
2015,04,09,16,20,18.70
2015,04,09,16,21,18.70
2015,04,09,16,22,18.80
2015,04,09,16,23,18.90
2015,04,09,16,24,18.90
2015,04,09,16,25,19.00
2015,04,09,16,26,19.00
2015,04,09,16,27,19.00
2015,04,09,16,28,18.90
2015,04,09,16,29,19.00
2015,04,09,16,30,18.90
2015,04,09,16,31,19.00
2015,04,09,16,32,19.00
2015,04,09,16,33,19.00
2015,04,09,16,34,19.00
2015,04,09,16,35,18.90
2015,04,09,16,36,18.90
2015,04,09,16,37,18.80
2015,04,09,16,38,18.70
2015,04,09,16,39,18.70
2015,04,09,16,40,18.80
2015,04,09,16,41,18.80
2015,04,09,16,42,18.80
2015,04,09,16,43,18.80
2015,04,09,16,44,18.80
2015,04,09,16,45,18.80
2015,04,09,16,46,18.80
2015,04,09,16,47,18.70
2015,04,09,16,48,18.60
2015,04,09,16,49,18.50
2015,04,09,16,50,18.40
2015,04,09,16,51,18.40
2015,04,09,16,52,18.40
2015,04,09,16,53,18.40
2015,04,09,16,54,18.40
2015,04,09,16,55,18.40
2015,04,09,16,56,18.40
2015,04,09,16,57,18.40
2015,04,09,16,58,18.30
2015,04,09,16,59,18.30
2015,04,09,17,00,18.30
2015,04,09,17,01,18.30
2015,04,09,17,02,18.30
2015,04,09,17,03,18.20
2015,04,09,17,04,18.20
2015,04,09,17,05,18.20
2015,04,09,17,06,18.20
2015,04,09,17,07,18.10
2015,04,09,17,08,18.00
2015,04,09,17,09,18.00
2015,04,09,17,10,18.00
2015,04,09,17,11,18.10
2015,04,09,17,12,18.10
2015,04,09,17,13,18.10
2015,04,09,17,14,18.00
2015,04,09,17,15,18.00
2015,04,09,17,16,18.00
2015,04,09,17,17,18.10
2015,04,09,17,18,18.10
2015,04,09,17,19,18.00
2015,04,09,17,20,17.90
2015,04,09,17,21,17.90
2015,04,09,17,22,17.80
2015,04,09,17,23,17.90
2015,04,09,17,24,17.90
2015,04,09,17,25,17.90
2015,04,09,17,26,17.90
2015,04,09,17,27,17.90
2015,04,09,17,28,17.90
2015,04,09,17,29,17.90
2015,04,09,17,30,17.90
2015,04,09,17,31,17.80
2015,04,09,17,32,17.80
2015,04,09,17,33,17.80
2015,04,09,17,34,17.80
2015,04,09,17,35,17.70
2015,04,09,17,36,17.70
2015,04,09,17,37,17.60
2015,04,09,17,38,17.60
2015,04,09,17,39,17.40
2015,04,09,17,40,17.40
2015,04,09,17,41,17.30
2015,04,09,17,42,17.30
2015,04,09,17,43,17.20
2015,04,09,17,44,17.10
2015,04,09,17,45,17.10
2015,04,09,17,46,17.00
2015,04,09,17,47,17.00
2015,04,09,17,48,17.00